Tracking 19846 objects as of 19-Sep-2019
HD Live streaming from Space Station
objects crossing your sky now

SL-14 R/B

Track SL-14 R/B now!
10-day predictions


NORAD ID: 15475
Int'l Code: 1985-003G
Perigee: 1,421.5 km
Apogee: 1,478.7 km
Inclination: 82.6 °
Period: 114.7 minutes
Semi major axis: 7821 km
RCS: 6.3339 m2 (large)
Launch date: January 15, 1985
Source: Commonwealth of Independent States (former USSR) (CIS)
Launch site: PLESETSK MISSILE AND SPACE COMPLEX (PKMTR)

Note: This is a ROCKET BODY
aabbcc
Your satellite tracking list
Your tracking list is empty




NASA's NSSDC Master Catalog

Two Line Element Set (TLE):
1 15475U 85003G   19261.82886650 +.00000005 +00000-0 -30893-4 0  9993
2 15475 082.6149 345.5731 0036579 313.7934 184.2731 12.55157250588473
Source of the keplerian elements: AFSPC